Estación de Algarrobo Bajo INIA

Ultimos registro cada 15 minutos 45
Estación Fecha / Hora Temperatura Humedad Lluvia Velocidad Dirección Radiación Presion
45 Algarrobo Bajo INIA 10-05-2026 11:00 15,9 56,9 0 2,6 307 496 0
44 Algarrobo Bajo INIA 10-05-2026 10:45 15,7 60,3 0 2,4 310 469 0
43 Algarrobo Bajo INIA 10-05-2026 10:30 15,3 60,2 0 1,6 310 440 0
42 Algarrobo Bajo INIA 10-05-2026 10:15 13 63,5 0 0,6 50 407 0
41 Algarrobo Bajo INIA 10-05-2026 10:00 11,3 69,3 0 0,6 49 371 0
40 Algarrobo Bajo INIA 10-05-2026 09:45 9,7 72,5 0 0,2 60 334 0
39 Algarrobo Bajo INIA 10-05-2026 09:30 8,4 78,2 0 0,4 94 295 0
38 Algarrobo Bajo INIA 10-05-2026 09:15 7,1 87,5 0 0,1 78 257 0
37 Algarrobo Bajo INIA 10-05-2026 09:00 6,1 91,8 0 0 0 216 0
36 Algarrobo Bajo INIA 10-05-2026 08:45 5,1 94 0 0,1 93 173 0
35 Algarrobo Bajo INIA 10-05-2026 08:30 4,9 94 0 0,1 113 133 0
34 Algarrobo Bajo INIA 10-05-2026 08:15 3,4 96,4 0 0,1 278 89 0
33 Algarrobo Bajo INIA 10-05-2026 08:00 2,6 95,4 0 0 0 44 0
32 Algarrobo Bajo INIA 10-05-2026 07:45 1,5 96,4 0 0 47 15 0
31 Algarrobo Bajo INIA 10-05-2026 07:30 1,6 94,7 0 0,1 61 4 0
30 Algarrobo Bajo INIA 10-05-2026 07:15 1,1 95,5 0 0,4 47 1 0
29 Algarrobo Bajo INIA 10-05-2026 07:00 1,9 94,2 0 0,5 43 0 0
28 Algarrobo Bajo INIA 10-05-2026 06:45 2,5 94,8 0 0 0 0 0
27 Algarrobo Bajo INIA 10-05-2026 06:30 2,6 94,7 0 0 244 0 0
26 Algarrobo Bajo INIA 10-05-2026 06:15 2,6 94,5 0 0 0 0 0
25 Algarrobo Bajo INIA 10-05-2026 06:00 2,6 94,9 0 0 0 0 0
24 Algarrobo Bajo INIA 10-05-2026 05:45 3,5 93,6 0 0 0 0 0
23 Algarrobo Bajo INIA 10-05-2026 05:30 3,3 94,7 0 0,2 261 0 0
22 Algarrobo Bajo INIA 10-05-2026 05:15 3,2 94,3 0 0 0 0 0
21 Algarrobo Bajo INIA 10-05-2026 05:00 3,7 93,8 0 0 0 0 0
20 Algarrobo Bajo INIA 10-05-2026 04:45 3,7 93,8 0 0,1 265 0 0
19 Algarrobo Bajo INIA 10-05-2026 04:30 3,4 93 0 0 0 0 0
18 Algarrobo Bajo INIA 10-05-2026 04:15 3,2 92,9 0 0 0 0 0
17 Algarrobo Bajo INIA 10-05-2026 04:00 4 91,9 0 0 318 0 0
16 Algarrobo Bajo INIA 10-05-2026 03:45 4 92,2 0 0 0 0 0
15 Algarrobo Bajo INIA 10-05-2026 03:30 4,4 93,3 0 0 0 0 0
14 Algarrobo Bajo INIA 10-05-2026 03:15 5,1 92,9 0 0 327 0 0
13 Algarrobo Bajo INIA 10-05-2026 03:00 4,9 92,8 0 0 349 0 0
12 Algarrobo Bajo INIA 10-05-2026 02:45 4,5 92,4 0 0,3 37 0 0
11 Algarrobo Bajo INIA 10-05-2026 02:30 4,6 91,6 0 0,7 46 0 0
10 Algarrobo Bajo INIA 10-05-2026 02:15 5,6 90,9 0 0 323 0 0
9 Algarrobo Bajo INIA 10-05-2026 02:00 5,6 90,6 0 0 0 0 0
8 Algarrobo Bajo INIA 10-05-2026 01:45 5,8 90,3 0 0 0 0 0
7 Algarrobo Bajo INIA 10-05-2026 01:30 5,7 90,5 0 0,1 41 0 0
6 Algarrobo Bajo INIA 10-05-2026 01:15 6,5 89,9 0 0 0 0 0
5 Algarrobo Bajo INIA 10-05-2026 01:00 6,6 89,2 0 0 301 0 0
4 Algarrobo Bajo INIA 10-05-2026 00:45 6,7 88,5 0 0,2 302 0 0
3 Algarrobo Bajo INIA 10-05-2026 00:30 7 87,8 0 0 0 0 0
2 Algarrobo Bajo INIA 10-05-2026 00:15 7,1 87,6 0 0,2 310 0 0
1 Algarrobo Bajo INIA 10-05-2026 00:00 7,2 87,9 0 0,4 315 0 0